#timestamp,LO_Frequency,Hit 
1503172815.6,286046992.4,N
1503172835.5,286046994.5,N
1503172855.3,286046995.5,N
1503172875.1,286046997.6,N
1503172895.9,286046997.3,N
1503172915.7,286046998.0,N
1503172935.5,286046995.7,N
1503172955.4,286046999.6,N
1503172975.2,286046997.4,N
1503172995.0,286046996.9,N
1503172995.9,286046996.9,N
1503173015.8,286046998.0,N
1503173035.6,286046997.0,N
1503173055.4,286046997.4,N
1503173075.3,286046991.7,P
1503173095.1,286047000.3,N
1503173096.0,286047000.3,N
1503173115.8,286046999.9,N
1503173135.7,286047002.4,N
1503173155.5,286047002.9,N
1503173175.3,286047007.6,N
1503173195.2,286047006.0,N
1503173215.9,286047001.9,N
1503173235.7,286047001.9,N
1503173255.6,286047003.9,N
1503173275.4,286047003.1,N
1503173295.2,286047006.0,N
1503173315.0,286047005.6,N
1503173316.0,286047005.6,N
1503173335.8,286047004.7,N
1503173355.6,286047005.2,N
1503173375.4,286047004.8,N
1503173395.3,286047006.7,N
1503173415.1,286047007.9,N
1503173435.8,286047009.1,N
1503173455.7,286047007.0,N
1503173475.5,286047006.2,N
1503173495.3,286047006.4,N
1503173515.2,286047007.3,N
1503173535.9,286047006.4,N
1503173555.7,286047004.6,N
1503173575.6,286047003.3,N
1503173595.4,286047005.9,N
1503173615.2,286047008.4,N
1503173635.0,286047007.9,N
1503173636.0,286047007.9,P
1503173655.8,286047001.9,N
1503173675.6,286047001.3,N
1503173695.5,286047001.6,N
1503173715.3,286047002.8,N
1503173735.1,286046999.8,N
1503173755.8,286047001.5,N
1503173775.7,286047001.6,N
1503173795.5,286047005.5,N
1503173815.3,286047004.9,N
1503173835.2,286047005.1,N
1503173855.9,286047003.0,N
1503173875.7,286047004.5,N
1503173895.6,286047003.4,N
1503173915.4,286047005.3,N
1503173935.2,286047006.3,P
1503173955.1,286047006.0,P
1503173956.0,286047006.0,P
1503173975.8,286047001.4,N
1503173995.6,286047005.9,P
1503174015.5,286046998.6,N
1503174035.3,286047000.9,N
1503174055.1,286046999.8,N
1503174075.9,286046999.0,N
1503174095.7,286046996.9,N
1503174115.5,286046997.0,N
1503174135.4,286046997.3,N
1503174155.2,286046995.6,N
1503174175.0,286046997.8,N
1503174175.9,286046997.8,N
1503174195.8,286046997.4,N
1503174215.6,286046998.7,N
1503174235.4,286046996.9,N
1503174255.3,286046998.0,N
1503174275.1,286046998.6,N
1503174276.0,286046998.6,N
1503174295.8,286047001.0,N
1503174315.7,286047002.3,N
1503174335.5,286046999.5,N
1503174355.3,286046997.5,N
1503174375.1,286046997.7,N
1503174395.9,286046997.6,N
1503174415.7,286046994.0,N
1503174435.6,286046992.2,P
1503174455.4,286046996.2,N
1503174475.2,286046996.4,N
1503174495.0,286046997.1,N
1503174495.9,286046997.1,N
1503174515.8,286046995.5,N
1503174535.6,286046994.0,P
1503174555.5,286046998.7,N
1503174575.3,286046996.8,N
1503174595.1,286046997.7,N
1503174615.8,286046997.3,N
1503174635.7,286046997.0,N
1503174655.5,286046998.9,N
1503174675.3,286047001.8,N
1503174695.2,286046998.2,N
1503174715.9,286046998.2,N
1503174735.7,286046999.1,N
1503174755.6,286046997.0,N
1503174775.4,286046998.5,N
1503174795.2,286046999.8,N
1503174815.1,286046998.3,N
1503174816.0,286046998.3,N
1503174835.8,286047002.3,N
1503174855.6,286047004.1,N
1503174875.5,286047002.3,N
1503174895.3,286047000.7,N
1503174915.1,286047000.1,N
1503174935.9,286047008.8,P
1503174955.7,286047011.8,N
1503174975.5,286047010.6,N
1503174995.4,286047008.3,N
1503175015.2,286047004.7,N
1503175035.0,286047006.0,N
1503175035.9,286047006.0,N
1503175055.8,286047003.0,N
1503175075.6,286047003.8,N
1503175095.4,286047003.1,N
1503175115.2,286047005.5,N
1503175135.1,286047007.5,N
1503175136.0,286047007.5,N
1503175155.8,286047003.7,N
1503175175.6,286047004.0,N
1503175195.5,286047003.4,N
1503175215.3,286047005.1,N
1503175235.1,286047004.8,N
1503175255.9,286047004.8,N
1503175275.7,286047003.0,N
1503175295.5,286047003.0,N
1503175315.4,286047001.3,N
1503175335.2,286047001.5,N
1503175355.0,286047002.8,N
1503175355.9,286047002.8,N
1503175375.8,286046999.4,N
1503175395.6,286046998.9,N
1503175415.4,286046998.9,N
1503175435.2,286046998.5,N
1503175455.1,286047000.5,N
1503175456.0,286047000.5,N
1503175475.8,286046998.8,N
1503175495.6,286046998.3,N
1503175515.5,286046999.9,N
1503175535.3,286046999.7,N
1503175555.1,286046998.6,N
1503175575.9,286046998.4,N
1503175595.7,286046998.2,N
1503175615.5,286047000.7,N
1503175635.4,286047003.3,N
1503175655.2,286047004.0,N
1503175675.0,286047001.3,N
1503175675.9,286047001.3,N
1503175695.8,286047002.2,N
1503175715.6,286047001.6,N
1503175735.4,286047002.6,N
1503175755.3,286046999.7,N
1503175775.1,286047002.0,N
1503175776.0,286047002.0,N
1503175795.8,286047003.2,N
1503175815.7,286047002.6,N
1503175835.5,286047002.6,N
1503175855.3,286047006.0,P
1503175875.2,286047006.0,N
1503175895.9,286047001.4,N
1503175915.7,286047003.4,N
1503175935.6,286047005.6,N
1503175955.4,286047005.7,N
1503175975.2,286047005.8,N
1503175995.0,286047003.1,N
1503175995.9,286047003.1,N
1503176015.8,286047001.3,N
1503176035.6,286047005.6,N
1503176055.4,286047005.7,N
1503176075.3,286047003.4,N
1503176095.1,286047003.2,N
1503176115.8,286047005.7,P
1503176135.7,286047004.2,P
1503176155.5,286047004.3,P
1503176175.3,286047001.2,N
1503176195.2,286046999.6,N
1503176215.9,286047000.5,N
1503176235.7,286047001.8,N
1503176255.6,286047003.1,N
1503176275.4,286047003.3,N
1503176295.2,286047006.6,P
1503176315.1,286047004.0,N
1503176316.0,286047004.0,N
1503176335.8,286047000.7,N
1503176355.6,286047001.9,N
1503176375.5,286047000.0,N
1503176395.3,286046998.2,N
